Change the Weather History Date:

Friday, January 24, 2014

  Actual Average Record
Temperature  
Mean Temperature 68 °F -  
Max Temperature 73 °F 80 °F 87 °F (2007)
Min Temperature 64 °F 63 °F 50 °F (2001)
Cooling Degree Days 4    
Growing Degree Days 18 (Base 50)    
Moisture  
Dew Point 65 °F    
Average Humidity 86    
Maximum Humidity 94    
Minimum Humidity 64    
Precipitation  
Precipitation 0.10 in - - ()
Sea Level Pressure  
Sea Level Pressure 30.19 in    
Wind  
Wind Speed 4 mph ()    
Max Wind Speed 12 mph    
Max Gust Speed -    
Visibility 5.9 miles    
Events Rain    
Averages and records for this station are not official NWS values.
T = Trace of Precipitation, MM = Missing Value Source: Averaged Metar Reports

Daily Weather History Graph

Daily Weather History Graph

Search for Another Location

Airport or City:

Trip Planner

Search our weather history database for the weather conditions in past years. The results will help you decide how hot, cold, wet, or windy it might be!

Date:

Astronomy

Jan. 24, 2014 Rise Set
Actual Time 6:26 AM CST 5:33 PM CST
Civil Twilight 6:03 AM CST 5:56 PM CST
Nautical Twilight 5:36 AM CST 6:23 PM CST
Astronomical Twilight 5:09 AM CST 6:49 PM CST
Moon 12:03 AM CST (1/24) 11:43 AM CST (1/24)
Length of Visible Light 11h 53m
Length of Day
11h 06m
Last Quarter, 44% of the Moon is Illuminated
Jan 24
Last Quarter
Jan 30
New
Feb 6
First Quarter
Feb 14
Full
Feb 22
Last Quarter

Hourly Weather History & Observations

Time (CST) Temp. Dew Point Humidity Pressure Visibility Wind Dir Wind Speed Gust Speed Precip Events Conditions
12:45 AM 71.6 °F 59.0 °F 64% 30.17 in 7.0 mi ENE 4.6 mph - N/A   Mostly Cloudy
1:42 AM 69.8 °F 60.8 °F 73% 30.16 in 7.0 mi NNE 3.5 mph - N/A   Mostly Cloudy
2:49 AM 68.0 °F 59.0 °F 73% 30.13 in 7.0 mi NNE 3.5 mph - N/A   Scattered Clouds
3:43 AM 64.4 °F 60.8 °F 88% 30.17 in 7.0 mi Calm Calm - N/A   Scattered Clouds
4:45 AM 64.4 °F 60.8 °F 88% 30.18 in 7.0 mi NNW 2.3 mph - N/A   Mostly Cloudy
5:47 AM 66.2 °F 60.8 °F 83% 30.15 in 7.0 mi NE 3.5 mph - N/A   Scattered Clouds
6:42 AM 69.8 °F 60.8 °F 73% 30.20 in 7.0 mi NE 3.5 mph - N/A   Mostly Cloudy
7:43 AM 73.4 °F 62.6 °F 69% 30.22 in 7.0 mi NE 6.9 mph - N/A   Overcast
8:43 AM 71.6 °F 66.2 °F 83% 30.22 in 7.0 mi NNE 9.2 mph - N/A   Overcast
9:45 AM 71.6 °F 68.0 °F 88% 30.26 in 6.0 mi NE 8.1 mph - N/A Rain Light Rain
10:01 AM 73.4 °F 66.2 °F 78% 30.26 in 7.0 mi NNE 11.5 mph - N/A   Overcast
10:42 AM 71.6 °F 68.0 °F 88% 30.26 in 7.0 mi NE 4.6 mph - N/A   Overcast
11:05 AM 69.8 °F 68.0 °F 94% 30.26 in 6.0 mi NNE 4.6 mph - N/A Rain Light Rain
11:14 AM 69.8 °F 68.0 °F 94% 30.25 in 2.0 mi NE 3.5 mph - N/A Rain Rain
11:41 AM 69.8 °F 68.0 °F 94% 30.22 in 2.0 mi NNE 6.9 mph - N/A Rain Rain
12:34 PM 69.8 °F 68.0 °F 94% 30.21 in 3.0 mi North 3.5 mph - N/A Rain Light Rain
12:44 PM 71.6 °F 68.0 °F 88% 30.20 in 5.0 mi NNE 2.3 mph - N/A Rain Light Rain
1:19 PM 71.6 °F 68.0 °F 88% 30.18 in 6.0 mi North 3.5 mph - N/A   Overcast
1:47 PM 71.6 °F 66.2 °F 83% 30.17 in 6.0 mi East 5.8 mph - N/A   Overcast
2:45 PM 69.8 °F 68.0 °F 94% 30.15 in 4.0 mi East 4.6 mph - N/A Rain Light Rain
3:41 PM 71.6 °F 68.0 °F 88% 30.16 in 5.0 mi NE 4.6 mph - N/A Rain Light Rain
4:40 PM 69.8 °F 68.0 °F 94% 30.16 in 6.0 mi Calm Calm - N/A   Overcast
5:44 PM 69.8 °F 66.2 °F 88% 30.14 in 6.0 mi Calm Calm - N/A   Overcast
6:40 PM 69.8 °F 66.2 °F 88% 30.16 in 6.0 mi East 2.3 mph - N/A   Overcast
7:40 PM 69.8 °F 66.2 °F 88% 30.17 in 6.0 mi ENE 2.3 mph - N/A   Overcast
8:43 PM 69.8 °F 66.2 °F 88% 30.17 in 6.0 mi North 2.3 mph - N/A   Overcast
9:48 PM 68.0 °F 64.4 °F 88% 30.19 in 6.0 mi NNW 5.8 mph - N/A   Overcast
10:47 PM 68.0 °F 64.4 °F 88% 30.19 in 6.0 mi Calm Calm - N/A   Overcast
11:46 PM 66.2 °F 64.4 °F 94% 30.14 in 6.0 mi NNW 5.8 mph - N/A   Overcast